{"data":{"norad_id":45430,"epoch":"2026-05-25T02:38:17.596896Z","epoch_age_seconds":65344,"freshness":"FRESH","line1":"1 45430U 20020G   26145.10992589  .00000472  00000+0  13060-2 0  9995","line2":"2 45430  87.8915  25.6601 0001869  80.4828 279.6511 13.10861144299640","mean_motion":13.10861144,"eccentricity":0.0001869,"inclination_deg":87.8915,"raan_deg":25.6601,"arg_perigee_deg":80.4828,"mean_anomaly_deg":279.6511,"bstar":0.001306,"rev_number":29964,"period_min":109.85145197042,"perigee_km":1218.4095558163,"apogee_km":1221.2496757373,"semimajor_km":7597.9666157768,"source":"CELESTRAK","updated_at":"2026-05-25T13:38:22.341879Z"}}